When you browse on this site, cookies collect data to enhance your experience and personalize the content and advertising you see.
Visit our Privacy Policy to learn more. By continuing to use the site, you agree to this use of cookies and data.
  • In Portugal
  • List of Countries
  • For 7 days
  • Water Temperature
  • Satellite Maps
  • Weather Map
  • Weather Widgets
  • user-avatar
    Login

    Hourly Weather Kalat

    Today, 21 May, Tuesday

    Time Temperature Precipitation Wind Pressure Humidity
    00:00 0°C° 0 mm 1 mps 475 mmHg 31%
    01:00 -1°C° 0 mm 1 mps 475 mmHg 33%
    02:00 -1°C° 0 mm 1 mps 475 mmHg 34%
    03:00 -1°C° 0 mm 1 mps 475 mmHg 36%
    04:00 -1°C° 0 mm 1 mps 474 mmHg 37%
    05:00 -1°C° 0 mm 1 mps 474 mmHg 36%
    06:00 0°C° 0 mm 1 mps 475 mmHg 36%
    07:00 +2°C° 0 mm 1 mps 476 mmHg 35%
    08:00 +2°C° 0 mm 0 mps 478 mmHg 34%
    09:00 +4°C° 0 mm 1 mps 478 mmHg 32%
    10:00 +5°C° 0 mm 1 mps 478 mmHg 30%
    11:00 +6°C° 0 mm 1 mps 479 mmHg 35%
    12:00 +6°C° 0 mm 1 mps 479 mmHg 36%
    13:00 +7°C° 0 mm 1 mps 479 mmHg 36%
    14:00 +7°C° 0 mm 1 mps 480 mmHg 36%
    15:00 +7°C° 0 mm 1 mps 480 mmHg 38%
    16:00 +7°C° 0 mm 1 mps 479 mmHg 40%
    17:00 +7°C° 0 mm 1 mps 479 mmHg 42%
    18:00 +6°C° 0 mm 1 mps 478 mmHg 45%
    19:00 +5°C° 0 mm 1 mps 478 mmHg 49%
    20:00 +3°C° 0 mm 1 mps 477 mmHg 52%
    21:00 +3°C° 0 mm 1 mps 477 mmHg 52%
    22:00 +3°C° 0 mm 1 mps 477 mmHg 53%
    23:00 +2°C° 0 mm 1 mps 477 mmHg 53%

    Tomorrow, 22 May, Wednesday

    Time Temperature Precipitation Wind Pressure Humidity
    00:00 +2°C° 0 mm 1 mps 476 mmHg 54%
    01:00 +2°C° 0 mm 1 mps 476 mmHg 55%
    02:00 +2°C° 0 mm 1 mps 476 mmHg 56%
    03:00 +1°C° 0 mm 1 mps 476 mmHg 57%
    04:00 +1°C° 0 mm 1 mps 475 mmHg 59%
    05:00 +1°C° 0 mm 1 mps 475 mmHg 61%
    06:00 +2°C° 0 mm 1 mps 476 mmHg 59%
    07:00 +3°C° 0 mm 1 mps 477 mmHg 57%
    08:00 +5°C° 0 mm 1 mps 478 mmHg 55%
    09:00 +5°C° 0 mm 1 mps 478 mmHg 54%
    10:00 +6°C° 0 mm 1 mps 478 mmHg 53%
    11:00 +7°C° 0 mm 1 mps 479 mmHg 53%
    12:00 +7°C° 0.3 mm 1 mps 479 mmHg 55%
    13:00 +7°C° 0.3 mm 1 mps 478 mmHg 57%
    14:00 +7°C° 0.3 mm 1 mps 478 mmHg 60%
    15:00 +6°C° 1.2 mm 1 mps 477 mmHg 66%
    16:00 +4°C° 1.2 mm 2 mps 477 mmHg 73%
    17:00 +3°C° 1.2 mm 2 mps 476 mmHg 79%
    18:00 +3°C° 1.2 mm 2 mps 476 mmHg 81%
    19:00 +3°C° 1.2 mm 2 mps 476 mmHg 83%
    20:00 +2°C° 1.2 mm 2 mps 476 mmHg 85%
    21:00 +3°C° 0.5 mm 1 mps 476 mmHg 85%
    22:00 +3°C° 0.5 mm 1 mps 476 mmHg 85%
    23:00 +3°C° 0.5 mm 1 mps 476 mmHg 85%

    Day after tomorrow, 23 May, Thursday

    Time Temperature Precipitation Wind Pressure Humidity
    00:00 +3°C° 0.5 mm 1 mps 476 mmHg 85%
    01:00 +2°C° 0.5 mm 2 mps 476 mmHg 86%
    02:00 +2°C° 0.5 mm 2 mps 476 mmHg 86%
    03:00 +2°C° 0.2 mm 2 mps 475 mmHg 86%
    04:00 +2°C° 0.2 mm 2 mps 475 mmHg 85%
    05:00 +1°C° 0.2 mm 2 mps 475 mmHg 85%
    06:00 +2°C° 0.7 mm 2 mps 475 mmHg 84%
    07:00 +2°C° 0.7 mm 2 mps 476 mmHg 84%
    08:00 +3°C° 0.7 mm 2 mps 476 mmHg 84%
    09:00 +3°C° 1 mm 2 mps 476 mmHg 84%
    10:00 +3°C° 1 mm 2 mps 476 mmHg 85%
    11:00 +4°C° 1 mm 2 mps 476 mmHg 86%
    12:00 +4°C° 1.5 mm 2 mps 476 mmHg 86%
    13:00 +4°C° 1.5 mm 2 mps 476 mmHg 86%
    14:00 +4°C° 1.5 mm 1 mps 476 mmHg 87%
    15:00 +4°C° 1 mm 1 mps 476 mmHg 86%
    16:00 +4°C° 1 mm 1 mps 476 mmHg 86%
    17:00 +4°C° 1 mm 1 mps 476 mmHg 85%
    18:00 +4°C° 0.6 mm 1 mps 476 mmHg 85%
    19:00 +4°C° 0.6 mm 1 mps 476 mmHg 85%
    20:00 +3°C° 0.6 mm 1 mps 476 mmHg 85%
    21:00 +3°C° 0.1 mm 1 mps 475 mmHg 85%
    22:00 +1°C° 0.1 mm 0 mps 475 mmHg 85%
    23:00 0°C° 0.1 mm 0 mps 474 mmHg 85%

    24 May, Friday

    Time Temperature Precipitation Wind Pressure Humidity
    00:00 +1°C° 0 mm 1 mps 474 mmHg 84%
    01:00 +1°C° 0 mm 1 mps 474 mmHg 84%
    02:00 +1°C° 0 mm 1 mps 474 mmHg 83%
    03:00 +1°C° 0.1 mm 1 mps 473 mmHg 83%
    04:00 0°C° 0.1 mm 1 mps 473 mmHg 82%
    05:00 0°C° 0.1 mm 1 mps 473 mmHg 82%
    06:00 -1°C° 0 mm 2 mps 474 mmHg 80%
    07:00 +1°C° 0 mm 2 mps 475 mmHg 78%
    08:00 +2°C° 0 mm 2 mps 476 mmHg 76%
    09:00 +3°C° 0.1 mm 2 mps 477 mmHg 78%
    10:00 +3°C° 0.1 mm 3 mps 477 mmHg 80%
    11:00 +3°C° 0.1 mm 3 mps 478 mmHg 81%
    12:00 +3°C° 0.5 mm 3 mps 478 mmHg 81%
    13:00 +3°C° 0.5 mm 3 mps 478 mmHg 80%
    14:00 +3°C° 0.5 mm 3 mps 478 mmHg 79%
    15:00 +3°C° 0.3 mm 3 mps 478 mmHg 77%
    16:00 +3°C° 0.3 mm 3 mps 478 mmHg 75%
    17:00 +3°C° 0.3 mm 3 mps 478 mmHg 73%
    18:00 +2°C° 0.1 mm 3 mps 477 mmHg 74%
    19:00 0°C° 0.1 mm 3 mps 476 mmHg 75%
    20:00 -1°C° 0.1 mm 3 mps 476 mmHg 76%
    21:00 -2°C° 0 mm 2 mps 475 mmHg 78%
    22:00 -2°C° 0 mm 2 mps 475 mmHg 79%
    23:00 -1°C° 0 mm 1 mps 475 mmHg 81%

    25 May, Saturday

    Time Temperature Precipitation Wind Pressure Humidity
    00:00 -2°C° 0 mm 1 mps 474 mmHg 81%
    01:00 -2°C° 0 mm 1 mps 474 mmHg 81%
    02:00 -3°C° 0 mm 1 mps 473 mmHg 80%
    03:00 -3°C° 0 mm 1 mps 473 mmHg 78%
    04:00 -3°C° 0 mm 1 mps 473 mmHg 76%
    05:00 -3°C° 0 mm 1 mps 472 mmHg 74%
    06:00 -2°C° 0 mm 1 mps 474 mmHg 68%
    07:00 0°C° 0 mm 1 mps 475 mmHg 62%
    08:00 +1°C° 0 mm 1 mps 476 mmHg 56%
    09:00 +2°C° 0 mm 1 mps 476 mmHg 55%
    10:00 +2°C° 0 mm 2 mps 477 mmHg 53%
    11:00 +3°C° 0 mm 2 mps 477 mmHg 51%
    12:00 +4°C° 0 mm 2 mps 478 mmHg 50%
    13:00 +4°C° 0 mm 2 mps 478 mmHg 50%
    14:00 +5°C° 0 mm 2 mps 478 mmHg 49%
    15:00 +4°C° 0 mm 2 mps 478 mmHg 49%
    16:00 +4°C° 0 mm 2 mps 478 mmHg 49%
    17:00 +4°C° 0 mm 2 mps 477 mmHg 49%
    18:00 +3°C° 0 mm 2 mps 477 mmHg 54%
    19:00 +2°C° 0 mm 2 mps 476 mmHg 60%
    20:00 -1°C° 0 mm 2 mps 475 mmHg 65%
    21:00 -1°C° 0.1 mm 2 mps 475 mmHg 68%
    22:00 -2°C° 0.1 mm 2 mps 475 mmHg 71%
    23:00 0°C° 0.1 mm 1 mps 475 mmHg 74%

    26 May, Sunday

    Time Temperature Precipitation Wind Pressure Humidity
    00:00 -2°C° 0.1 mm 2 mps 475 mmHg 74%
    01:00 -3°C° 0.1 mm 2 mps 474 mmHg 75%
    02:00 -3°C° 0.1 mm 2 mps 474 mmHg 76%
    03:00 -4°C° 0 mm 2 mps 474 mmHg 76%
    04:00 -4°C° 0 mm 2 mps 473 mmHg 77%
    05:00 -5°C° 0 mm 2 mps 473 mmHg 78%
    06:00 -4°C° 0 mm 2 mps 474 mmHg 75%
    07:00 -3°C° 0 mm 2 mps 474 mmHg 71%
    08:00 -2°C° 0 mm 2 mps 475 mmHg 68%
    09:00 -1°C° 0.1 mm 2 mps 475 mmHg 65%
    10:00 +2°C° 0.1 mm 1 mps 476 mmHg 63%
    11:00 +3°C° 0.1 mm 1 mps 476 mmHg 60%
    12:00 +2°C° 0.3 mm 2 mps 477 mmHg 59%
    13:00 +3°C° 0.3 mm 2 mps 477 mmHg 58%
    14:00 +3°C° 0.3 mm 2 mps 477 mmHg 58%
    15:00 +3°C° 0.5 mm 2 mps 477 mmHg 60%
    16:00 +3°C° 0.5 mm 2 mps 477 mmHg 61%
    17:00 +2°C° 0.5 mm 2 mps 476 mmHg 63%
    18:00 +1°C° 0.2 mm 2 mps 476 mmHg 67%
    19:00 -1°C° 0.2 mm 2 mps 476 mmHg 71%
    20:00 -2°C° 0.2 mm 2 mps 475 mmHg 75%
    21:00 -3°C° 0.1 mm 2 mps 475 mmHg 76%
    22:00 -1°C° 0.1 mm 1 mps 475 mmHg 77%
    23:00 -1°C° 0.1 mm 1 mps 475 mmHg 79%
    Show more